Regional Weather Roundup
Issued by NWS

Home | Current Version | Previous Version | Graphics & Text | Print | Product List | Glossary On
Versions: 1 2 3 4 5 6 7 8 9 10 11 12 13 14 15 16 17 18 19 20 21 22 23 24 25 26 27 28 29 30 31 32 33 34 35 36 37 38 39 40 41 42 43 44 45 46 47 48 49 50
000
ASUS45 KBOI 021010
RWRID

IDAHO REGIONAL WEATHER ROUNDUP
NATIONAL WEATHER SERVICE BOISE ID
400 AM MDT THU JUL 02 2015

NOTE: "FAIR" INDICATES FEW OR NO CLOUDS BELOW 12000 FEET
WITH NO SIGNIFICANT WEATHER AND/OR OBSTRUCTIONS TO VISIBILITY

IDZ012-014-021100-
SOUTHWEST IDAHO


CITY           SKY/WX    TMP DP  RH WIND       PRES   REMARKS
BOISE          MOCLDY    74  49  41 SW3       29.96R
CALDWELL       MOCLDY    77  45  31 W10       29.96S
MOUNTAIN HOME  CLEAR     79  43  28 NW13      29.95S
$$

IDZ016-017-021100-
SOUTHCENTRAL IDAHO


CITY           SKY/WX    TMP DP  RH WIND       PRES   REMARKS
BURLEY         CLEAR     65  51  60 E3        30.05R
JEROME         CLEAR     68  44  42 S3        30.03R
TWIN FALLS     CLEAR     74  42  31 S13       30.02R
$$

IDZ019>023-021100-
SOUTHEAST IDAHO


CITY           SKY/WX    TMP DP  RH WIND       PRES   REMARKS
IDAHO FALLS    CLEAR     59  54  83 N7        30.09S
POCATELLO      CLEAR     65  51  60 SW8       30.05S
REXBURG        CLEAR     61  54  77 N3        30.11S
$$

IDZ006-010-011-018-031-032-021100-
CENTRAL IDAHO MOUNTAINS


CITY           SKY/WX    TMP DP  RH WIND       PRES   REMARKS
MCCALL         CLEAR     61  46  57 VRB5      30.14F
STANLEY          N/A     50  34  54 S3        30.29S
SALMON         CLEAR     57  43  58 NE3       30.12R
CHALLIS        PTCLDY    62  41  46 S3        30.16S
$$

IDZ002-004-006-007-026-021100-
NORTHERN IDAHO


CITY           SKY/WX    TMP DP  RH WIND       PRES   REMARKS
LEWISTON       CLEAR     74  48  39 CALM      29.95R
LOWELL           N/A     63  53  70 N5        30.03R
COEUR D`ALENE  CLEAR     59  46  63 N5        30.00S
MULLAN PASS    CLEAR     68  37  32 CALM      30.23F
$$



USA.gov is the U.S. government's official web portal to all federal, state and local government web resources and services.